contact:dominique.lefevre@mio.osupytheas.fr, maurice.libes@osupytheas.fr, didier.mallarino@osupytheas.fr
Project:EMSO http://www.emso-fr.org/EMSO-France
Depth: 2436.0 m
Title:EMSO Ligure Ouest : Data MII capteur OXYGEN
DateTime,Latitude,Longitude,Optode-Type,Optode_Serial,Oxygen,Saturation_Oxygen,Temperature
DateTime,Latitude,Longitude,Optode-Type,Optode_Serial,µmol.l-1,%,degC
2019-06-21T00:00:58,42.805,6.029,4330,1995,192.637,58.919,13.294
2019-06-21T00:03:58,42.805,6.029,4330,1995,192.629,58.915,13.293
2019-06-21T00:06:58,42.805,6.029,4330,1995,192.585,58.903,13.294
2019-06-21T00:09:58,42.805,6.029,4330,1995,192.606,58.911,13.295
2019-06-21T00:12:58,42.805,6.029,4330,1995,192.450,58.862,13.295
2019-06-21T00:15:58,42.805,6.029,4330,1995,192.217,58.796,13.298
2019-06-21T00:18:58,42.805,6.029,4330,1995,192.065,58.752,13.300
2019-06-21T00:21:58,42.805,6.029,4330,1995,191.929,58.709,13.299
2019-06-21T00:24:58,42.805,6.029,4330,1995,191.975,58.721,13.297
2019-06-21T00:27:58,42.805,6.029,4330,1995,192.197,58.786,13.295
2019-06-21T00:30:58,42.805,6.029,4330,1995,192.049,58.750,13.302
2019-06-21T00:33:58,42.805,6.029,4330,1995,191.797,58.670,13.300
2019-06-21T00:36:58,42.805,6.029,4330,1995,191.739,58.651,13.299
2019-06-21T00:39:58,42.805,6.029,4330,1995,191.599,58.606,13.297
2019-06-21T00:42:58,42.805,6.029,4330,1995,191.762,58.659,13.300
2019-06-21T00:45:58,42.805,6.029,4330,1995,191.840,58.682,13.299
2019-06-21T00:48:58,42.805,6.029,4330,1995,191.720,58.645,13.299
2019-06-21T00:51:58,42.805,6.029,4330,1995,191.475,58.571,13.300
2019-06-21T00:54:58,42.805,6.029,4330,1995,191.705,58.637,13.297
2019-06-21T00:57:58,42.805,6.029,4330,1995,191.903,58.699,13.298
2019-06-21T01:00:58,42.805,6.029,4330,1995,191.702,58.643,13.302
2019-06-21T01:03:58,42.805,6.029,4330,1995,191.384,58.548,13.303
2019-06-21T01:06:58,42.805,6.029,4330,1995,191.157,58.472,13.298
2019-06-21T01:09:58,42.805,6.029,4330,1995,191.061,58.446,13.301
2019-06-21T01:12:58,42.805,6.029,4330,1995,191.025,58.438,13.303
2019-06-21T01:15:58,42.805,6.029,4330,1995,191.024,58.432,13.299
2019-06-21T01:18:58,42.805,6.029,4330,1995,191.466,58.569,13.300
2019-06-21T01:21:58,42.805,6.029,4330,1995,191.351,58.530,13.298
2019-06-21T01:24:58,42.805,6.029,4330,1995,191.478,58.572,13.300
2019-06-21T01:27:58,42.805,6.029,4330,1995,191.196,58.487,13.301
2019-06-21T01:30:58,42.805,6.029,4330,1995,190.874,58.392,13.304
2019-06-21T01:33:58,42.805,6.029,4330,1995,190.655,58.324,13.303
2019-06-21T01:36:58,42.805,6.029,4330,1995,190.560,58.293,13.301
2019-06-21T01:39:58,42.805,6.029,4330,1995,190.387,58.238,13.300
2019-06-21T01:42:58,42.805,6.029,4330,1995,190.732,58.346,13.302
2019-06-21T01:45:58,42.805,6.029,4330,1995,191.399,58.542,13.295
2019-06-21T01:51:58,42.805,6.029,4330,1995,191.659,58.630,13.302
2019-06-21T01:54:58,42.805,6.029,4330,1995,191.377,58.544,13.302
2019-06-21T01:57:58,42.805,6.029,4330,1995,191.293,58.519,13.302
2019-06-21T02:00:58,42.805,6.029,4330,1995,191.289,58.517,13.302
2019-06-21T02:03:58,42.805,6.029,4330,1995,191.172,58.479,13.300
2019-06-21T02:06:58,42.805,6.029,4330,1995,191.291,58.516,13.300
2019-06-21T02:09:58,42.805,6.029,4330,1995,191.411,58.552,13.301
2019-06-21T02:12:58,42.805,6.029,4330,1995,191.469,58.566,13.297
2019-06-21T02:15:58,42.805,6.029,4330,1995,191.644,58.625,13.302
2019-06-21T02:18:58,42.805,6.029,4330,1995,191.743,58.650,13.298
2019-06-21T02:21:58,42.805,6.029,4330,1995,191.762,58.662,13.302
2019-06-21T02:24:58,42.805,6.029,4330,1995,191.538,58.591,13.300
2019-06-21T02:27:58,42.805,6.029,4330,1995,191.687,58.633,13.297
2019-06-21T02:30:58,42.805,6.029,4330,1995,191.725,58.646,13.299
2019-06-21T02:33:58,42.805,6.029,4330,1995,191.637,58.625,13.303
2019-06-21T02:36:58,42.805,6.029,4330,1995,191.473,58.575,13.304
2019-06-21T02:39:58,42.805,6.029,4330,1995,191.483,58.569,13.297
2019-06-21T02:42:58,42.805,6.029,4330,1995,191.615,58.611,13.298
2019-06-21T02:45:58,42.805,6.029,4330,1995,191.653,58.629,13.302
2019-06-21T02:48:58,42.805,6.029,4330,1995,191.258,58.507,13.302
2019-06-21T02:51:58,42.805,6.029,4330,1995,191.100,58.459,13.302
2019-06-21T02:54:58,42.805,6.029,4330,1995,191.032,58.440,13.303
2019-06-21T02:57:58,42.805,6.029,4330,1995,190.736,58.345,13.300
2019-06-21T03:00:58,42.805,6.029,4330,1995,190.575,58.299,13.302
2019-06-21T03:03:58,42.805,6.029,4330,1995,190.449,58.264,13.305
2019-06-21T03:06:58,42.805,6.029,4330,1995,190.365,58.237,13.304
2019-06-21T03:09:58,42.805,6.029,4330,1995,190.560,58.296,13.303
2019-06-21T03:12:58,42.805,6.029,4330,1995,190.509,58.283,13.305
2019-06-21T03:15:58,42.805,6.029,4330,1995,190.478,58.272,13.304
2019-06-21T03:18:58,42.805,6.029,4330,1995,190.709,58.341,13.304
2019-06-21T03:21:58,42.805,6.029,4330,1995,190.966,58.417,13.301
2019-06-21T03:24:58,42.805,6.029,4330,1995,190.863,58.390,13.304
2019-06-21T03:27:58,42.805,6.029,4330,1995,190.947,58.418,13.306
2019-06-21T03:30:58,42.805,6.029,4330,1995,190.967,58.422,13.304
2019-06-21T03:33:58,42.805,6.029,4330,1995,190.886,58.399,13.306
2019-06-21T03:36:58,42.805,6.029,4330,1995,190.892,58.403,13.308
2019-06-21T03:39:58,42.805,6.029,4330,1995,190.892,58.404,13.308
2019-06-21T03:42:58,42.805,6.029,4330,1995,190.781,58.362,13.302
2019-06-21T03:45:58,42.805,6.029,4330,1995,190.626,58.318,13.305
2019-06-21T03:48:58,42.805,6.029,4330,1995,190.662,58.331,13.307
2019-06-21T03:51:58,42.805,6.029,4330,1995,190.564,58.304,13.309
2019-06-21T03:54:58,42.805,6.029,4330,1995,190.357,58.236,13.305
2019-06-21T03:57:58,42.805,6.029,4330,1995,190.266,58.211,13.307
2019-06-21T04:00:58,42.805,6.029,4330,1995,190.181,58.186,13.308
2019-06-21T04:03:58,42.805,6.029,4330,1995,190.309,58.224,13.307
2019-06-21T04:06:58,42.805,6.029,4330,1995,190.244,58.209,13.311
2019-06-21T04:09:58,42.805,6.029,4330,1995,190.282,58.210,13.303
2019-06-21T04:12:58,42.805,6.029,4330,1995,190.541,58.294,13.306
2019-06-21T04:15:58,42.805,6.029,4330,1995,190.369,58.240,13.305
2019-06-21T04:18:58,42.805,6.029,4330,1995,190.372,58.243,13.307
2019-06-21T04:27:58,42.805,6.029,4330,1995,190.235,58.197,13.304
2019-06-21T04:30:58,42.805,6.029,4330,1995,190.296,58.218,13.306
2019-06-21T04:33:58,42.805,6.029,4330,1995,190.369,58.243,13.307
2019-06-21T04:36:58,42.805,6.029,4330,1995,190.280,58.211,13.304
2019-06-21T04:39:58,42.805,6.029,4330,1995,190.421,58.254,13.304
2019-06-21T04:42:58,42.805,6.029,4330,1995,190.407,58.250,13.304
2019-06-21T04:45:58,42.805,6.029,4330,1995,190.580,58.301,13.303
2019-06-21T04:48:58,42.805,6.029,4330,1995,190.349,58.237,13.307
2019-06-21T04:51:58,42.805,6.029,4330,1995,190.184,58.179,13.302
2019-06-21T04:54:58,42.805,6.029,4330,1995,189.972,58.121,13.307
2019-06-21T04:57:58,42.805,6.029,4330,1995,189.966,58.110,13.300
2019-06-21T05:00:58,42.805,6.029,4330,1995,190.333,58.229,13.306
2019-06-21T05:03:58,42.805,6.029,4330,1995,190.344,58.234,13.307
2019-06-21T05:06:58,42.805,6.029,4330,1995,190.217,58.191,13.303
2019-06-21T05:09:58,42.805,6.029,4330,1995,190.191,58.183,13.304
2019-06-21T05:12:58,42.805,6.029,4330,1995,190.328,58.222,13.302
2019-06-21T05:15:58,42.805,6.029,4330,1995,190.417,58.254,13.305
2019-06-21T05:18:58,42.805,6.029,4330,1995,190.497,58.275,13.302
2019-06-21T05:21:58,42.805,6.029,4330,1995,190.576,58.301,13.304
2019-06-21T05:24:58,42.805,6.029,4330,1995,190.418,58.254,13.305
2019-06-21T05:27:58,42.805,6.029,4330,1995,190.145,58.171,13.305
2019-06-21T05:30:58,42.805,6.029,4330,1995,190.138,58.169,13.305
2019-06-21T05:33:58,42.805,6.029,4330,1995,190.125,58.161,13.302
2019-06-21T05:36:58,42.805,6.029,4330,1995,190.247,58.197,13.301
2019-06-21T05:39:58,42.805,6.029,4330,1995,190.440,58.256,13.301
2019-06-21T05:42:58,42.805,6.029,4330,1995,190.744,58.348,13.300
2019-06-21T05:45:58,42.805,6.029,4330,1995,190.849,58.381,13.301
2019-06-21T05:48:58,42.805,6.029,4330,1995,190.795,58.364,13.300
2019-06-21T05:51:58,42.805,6.029,4330,1995,190.668,58.325,13.301
2019-06-21T05:54:58,42.805,6.029,4330,1995,190.540,58.286,13.300
2019-06-21T05:57:58,42.805,6.029,4330,1995,190.239,58.198,13.303
2019-06-21T06:00:58,42.805,6.029,4330,1995,190.219,58.187,13.300
2019-06-21T06:03:58,42.805,6.029,4330,1995,190.547,58.290,13.302
2019-06-21T06:06:58,42.805,6.029,4330,1995,190.495,58.270,13.299
2019-06-21T06:09:58,42.805,6.029,4330,1995,190.343,58.225,13.300
2019-06-21T06:12:58,42.805,6.029,4330,1995,190.173,58.179,13.305
2019-06-21T06:15:58,42.805,6.029,4330,1995,190.026,58.133,13.304
2019-06-21T06:18:58,42.805,6.029,4330,1995,190.120,58.158,13.301
2019-06-21T06:21:58,42.805,6.029,4330,1995,189.893,58.085,13.298
2019-06-21T06:24:58,42.805,6.029,4330,1995,189.907,58.094,13.302
2019-06-21T06:27:58,42.805,6.029,4330,1995,189.879,58.083,13.300
2019-06-21T06:30:58,42.805,6.029,4330,1995,190.135,58.161,13.299
2019-06-21T06:33:58,42.805,6.029,4330,1995,190.275,58.208,13.303
2019-06-21T06:36:58,42.805,6.029,4330,1995,190.282,58.207,13.301
2019-06-21T06:39:58,42.805,6.029,4330,1995,190.370,58.235,13.301
2019-06-21T06:42:58,42.805,6.029,4330,1995,190.778,58.358,13.300
2019-06-21T06:45:58,42.805,6.029,4330,1995,191.056,58.444,13.301
2019-06-21T06:48:58,42.805,6.029,4330,1995,190.959,58.411,13.298
2019-06-21T06:51:58,42.805,6.029,4330,1995,190.982,58.419,13.299
2019-06-21T06:54:58,42.805,6.029,4330,1995,191.065,58.447,13.301
2019-06-21T07:00:58,42.805,6.029,4330,1995,191.073,58.452,13.303
2019-06-21T07:03:58,42.805,6.029,4330,1995,191.303,58.516,13.298
2019-06-21T07:06:58,42.805,6.029,4330,1995,191.152,58.469,13.297
2019-06-21T07:09:58,42.805,6.029,4330,1995,190.818,58.372,13.301
2019-06-21T07:12:58,42.805,6.029,4330,1995,190.543,58.287,13.300
2019-06-21T07:15:58,42.805,6.029,4330,1995,190.328,58.218,13.298
2019-06-21T07:18:58,42.805,6.029,4330,1995,190.452,58.258,13.299
2019-06-21T07:21:58,42.805,6.029,4330,1995,190.555,58.287,13.298
2019-06-21T07:24:58,42.805,6.029,4330,1995,190.449,58.257,13.300
2019-06-21T07:27:58,42.805,6.029,4330,1995,190.687,58.328,13.298
2019-06-21T07:30:58,42.805,6.029,4330,1995,191.306,58.517,13.298
2019-06-21T07:33:58,42.805,6.029,4330,1995,191.480,58.571,13.299
2019-06-21T07:36:58,42.805,6.029,4330,1995,191.398,58.545,13.297
2019-06-21T07:39:58,42.805,6.029,4330,1995,191.566,58.598,13.299
2019-06-21T07:42:58,42.805,6.029,4330,1995,191.574,58.602,13.301
2019-06-21T07:45:58,42.805,6.029,4330,1995,191.504,58.581,13.300
2019-06-21T07:48:58,42.805,6.029,4330,1995,191.390,58.542,13.298
2019-06-21T07:51:58,42.805,6.029,4330,1995,191.304,58.519,13.300
2019-06-21T07:54:58,42.805,6.029,4330,1995,191.234,58.500,13.302
2019-06-21T07:57:58,42.805,6.029,4330,1995,191.126,58.465,13.300
2019-06-21T08:00:58,42.805,6.029,4330,1995,191.215,58.493,13.301
2019-06-21T08:03:58,42.805,6.029,4330,1995,191.172,58.479,13.300
2019-06-21T08:06:58,42.805,6.029,4330,1995,190.904,58.400,13.303
2019-06-21T08:09:58,42.805,6.029,4330,1995,190.733,58.348,13.303
2019-06-21T08:12:58,42.805,6.029,4330,1995,190.765,58.357,13.302
2019-06-21T08:15:58,42.805,6.029,4330,1995,190.919,58.402,13.301
2019-06-21T08:18:58,42.805,6.029,4330,1995,191.067,58.446,13.300
2019-06-21T08:21:58,42.805,6.029,4330,1995,191.067,58.444,13.298
2019-06-21T08:24:58,42.805,6.029,4330,1995,190.916,58.401,13.301
2019-06-21T08:27:58,42.805,6.029,4330,1995,191.202,58.487,13.299
2019-06-21T08:30:57,42.805,6.029,4330,1995,191.318,58.527,13.303
2019-06-21T08:33:57,42.805,6.029,4330,1995,191.253,58.508,13.303
2019-06-21T08:36:57,42.805,6.029,4330,1995,191.163,58.478,13.301
2019-06-21T08:39:57,42.805,6.029,4330,1995,191.074,58.449,13.300
2019-06-21T08:42:57,42.805,6.029,4330,1995,190.997,58.424,13.299
2019-06-21T08:45:57,42.805,6.029,4330,1995,191.036,58.437,13.300
2019-06-21T08:48:57,42.805,6.029,4330,1995,191.414,58.549,13.297
2019-06-21T08:51:57,42.805,6.029,4330,1995,191.367,58.537,13.299
2019-06-21T08:54:57,42.805,6.029,4330,1995,191.059,58.445,13.301
2019-06-21T08:57:57,42.805,6.029,4330,1995,191.014,58.428,13.299
2019-06-21T09:00:57,42.805,6.029,4330,1995,190.853,58.378,13.298
2019-06-21T09:03:57,42.805,6.029,4330,1995,190.996,58.422,13.298
2019-06-21T09:06:57,42.805,6.029,4330,1995,191.066,58.442,13.297
2019-06-21T09:09:57,42.805,6.029,4330,1995,190.920,58.397,13.297
2019-06-21T09:12:57,42.805,6.029,4330,1995,190.780,58.356,13.298
2019-06-21T09:15:57,42.805,6.029,4330,1995,190.883,58.385,13.296
2019-06-21T09:18:57,42.805,6.029,4330,1995,191.115,58.460,13.299
2019-06-21T09:21:57,42.805,6.029,4330,1995,191.101,58.454,13.298
2019-06-21T09:24:57,42.805,6.029,4330,1995,191.207,58.487,13.298
2019-06-21T09:27:57,42.805,6.029,4330,1995,191.108,58.455,13.297
2019-06-21T09:30:57,42.805,6.029,4330,1995,191.241,58.497,13.298
2019-06-21T09:36:57,42.805,6.029,4330,1995,191.085,58.442,13.292
2019-06-21T09:39:57,42.805,6.029,4330,1995,191.196,58.484,13.298
2019-06-21T09:42:57,42.805,6.029,4330,1995,191.101,58.459,13.302
2019-06-21T09:45:57,42.805,6.029,4330,1995,190.999,58.432,13.305
2019-06-21T09:48:57,42.805,6.029,4330,1995,190.787,58.361,13.300
2019-06-21T09:51:57,42.805,6.029,4330,1995,190.553,58.290,13.300
2019-06-21T09:54:57,42.805,6.029,4330,1995,190.303,58.216,13.302
2019-06-21T09:57:57,42.805,6.029,4330,1995,190.635,58.314,13.300
2019-06-21T10:00:57,42.805,6.029,4330,1995,190.516,58.282,13.303
2019-06-21T10:03:57,42.805,6.029,4330,1995,190.688,58.335,13.303
2019-06-21T10:06:57,42.805,6.029,4330,1995,190.827,58.375,13.302
2019-06-21T10:09:57,42.805,6.029,4330,1995,190.922,58.404,13.301
2019-06-21T10:12:57,42.805,6.029,4330,1995,190.862,58.388,13.303
2019-06-21T10:15:57,42.805,6.029,4330,1995,190.907,58.403,13.304
2019-06-21T10:18:57,42.805,6.029,4330,1995,190.916,58.402,13.301
2019-06-21T10:21:57,42.805,6.029,4330,1995,190.737,58.346,13.301
2019-06-21T10:24:57,42.805,6.029,4330,1995,190.357,58.228,13.299
2019-06-21T10:27:57,42.805,6.029,4330,1995,190.540,58.284,13.299
2019-06-21T10:30:57,42.805,6.029,4330,1995,190.763,58.356,13.302
2019-06-21T10:33:57,42.805,6.029,4330,1995,190.733,58.341,13.298
2019-06-21T10:36:57,42.805,6.029,4330,1995,190.597,58.302,13.299
2019-06-21T10:39:57,42.805,6.029,4330,1995,190.510,58.275,13.299
2019-06-21T10:42:57,42.805,6.029,4330,1995,190.523,58.275,13.296
2019-06-21T10:45:57,42.805,6.029,4330,1995,190.587,58.301,13.301
2019-06-21T10:48:57,42.805,6.029,4330,1995,190.683,58.330,13.301
2019-06-21T10:51:57,42.805,6.029,4330,1995,190.903,58.393,13.298
2019-06-21T10:54:57,42.805,6.029,4330,1995,191.139,58.462,13.295
2019-06-21T10:57:57,42.805,6.029,4330,1995,191.217,58.496,13.303
2019-06-21T11:00:57,42.805,6.029,4330,1995,191.751,58.655,13.300
2019-06-21T11:03:57,42.805,6.029,4330,1995,192.006,58.728,13.296
2019-06-21T11:06:57,42.805,6.029,4330,1995,192.004,58.730,13.297
2019-06-21T11:09:57,42.805,6.029,4330,1995,191.914,58.698,13.294
2019-06-21T11:12:57,42.805,6.029,4330,1995,192.110,58.761,13.297
2019-06-21T11:15:57,42.805,6.029,4330,1995,191.974,58.727,13.302
2019-06-21T11:18:57,42.805,6.029,4330,1995,191.991,58.723,13.296
2019-06-21T11:21:57,42.805,6.029,4330,1995,191.916,58.707,13.300
2019-06-21T11:24:57,42.805,6.029,4330,1995,192.411,58.852,13.296
2019-06-21T11:27:57,42.805,6.029,4330,1995,192.499,58.884,13.300
2019-06-21T11:30:57,42.805,6.029,4330,1995,192.555,58.896,13.296
2019-06-21T11:33:57,42.805,6.029,4330,1995,192.561,58.901,13.298
2019-06-21T11:36:57,42.805,6.029,4330,1995,192.488,58.876,13.296
2019-06-21T11:39:57,42.805,6.029,4330,1995,192.726,58.955,13.301
2019-06-21T11:42:57,42.805,6.029,4330,1995,192.583,58.905,13.296
2019-06-21T11:45:57,42.805,6.029,4330,1995,192.438,58.861,13.296
2019-06-21T11:48:57,42.805,6.029,4330,1995,192.458,58.870,13.298
2019-06-21T11:51:57,42.805,6.029,4330,1995,192.135,58.774,13.300
2019-06-21T11:54:57,42.805,6.029,4330,1995,192.091,58.754,13.296
2019-06-21T11:57:57,42.805,6.029,4330,1995,192.122,58.766,13.298
2019-06-21T12:00:57,42.805,6.029,4330,1995,192.218,58.794,13.296
2019-06-21T12:03:57,42.805,6.029,4330,1995,192.193,58.789,13.298
2019-06-21T12:12:57,42.805,6.029,4330,1995,192.488,58.867,13.289
2019-06-21T12:15:57,42.805,6.029,4330,1995,192.546,58.891,13.294
2019-06-21T12:18:57,42.805,6.029,4330,1995,192.487,58.873,13.294
2019-06-21T12:21:57,42.805,6.029,4330,1995,192.458,58.862,13.292
2019-06-21T12:24:57,42.805,6.029,4330,1995,192.310,58.825,13.299
2019-06-21T12:27:57,42.805,6.029,4330,1995,192.223,58.793,13.295
2019-06-21T12:30:57,42.805,6.029,4330,1995,192.459,58.868,13.297
2019-06-21T12:33:57,42.805,6.029,4330,1995,192.432,58.858,13.295
2019-06-21T12:36:57,42.805,6.029,4330,1995,192.085,58.757,13.299
2019-06-21T12:39:57,42.805,6.029,4330,1995,191.958,58.719,13.300
2019-06-21T12:42:57,42.805,6.029,4330,1995,191.843,58.686,13.302
2019-06-21T12:45:57,42.805,6.029,4330,1995,191.774,58.660,13.298
2019-06-21T12:48:57,42.805,6.029,4330,1995,191.809,58.672,13.299
2019-06-21T12:51:57,42.805,6.029,4330,1995,191.971,58.718,13.296
2019-06-21T12:54:57,42.805,6.029,4330,1995,192.006,58.733,13.299
2019-06-21T12:57:57,42.805,6.029,4330,1995,191.839,58.684,13.301
2019-06-21T13:00:57,42.805,6.029,4330,1995,191.822,58.678,13.301
2019-06-21T13:03:57,42.805,6.029,4330,1995,191.778,58.668,13.303
2019-06-21T13:06:57,42.805,6.029,4330,1995,191.677,58.632,13.299
2019-06-21T13:09:57,42.805,6.029,4330,1995,191.639,58.619,13.298
2019-06-21T13:12:57,42.805,6.029,4330,1995,191.721,58.645,13.299
2019-06-21T13:15:57,42.805,6.029,4330,1995,191.656,58.626,13.299
2019-06-21T13:18:57,42.805,6.029,4330,1995,191.560,58.599,13.301
2019-06-21T13:21:57,42.805,6.029,4330,1995,191.544,58.590,13.298
2019-06-21T13:24:57,42.805,6.029,4330,1995,191.503,58.581,13.301
2019-06-21T13:27:57,42.805,6.029,4330,1995,191.398,58.549,13.301
2019-06-21T13:30:57,42.805,6.029,4330,1995,191.438,58.558,13.298
2019-06-21T13:33:57,42.805,6.029,4330,1995,191.273,58.508,13.298
2019-06-21T13:36:57,42.805,6.029,4330,1995,191.231,58.495,13.299
2019-06-21T13:39:57,42.805,6.029,4330,1995,191.197,58.482,13.296
2019-06-21T13:42:57,42.805,6.029,4330,1995,191.179,58.480,13.299
2019-06-21T13:45:57,42.805,6.029,4330,1995,191.224,58.495,13.301
2019-06-21T13:48:57,42.805,6.029,4330,1995,191.400,58.539,13.293
2019-06-21T13:51:57,42.805,6.029,4330,1995,191.739,58.647,13.296
2019-06-21T13:54:57,42.805,6.029,4330,1995,191.782,58.662,13.297
2019-06-21T13:57:57,42.805,6.029,4330,1995,191.773,58.656,13.295
2019-06-21T14:00:57,42.805,6.029,4330,1995,191.621,58.615,13.299
2019-06-21T14:03:57,42.805,6.029,4330,1995,191.580,58.605,13.301
2019-06-21T14:06:57,42.805,6.029,4330,1995,191.368,58.539,13.300
2019-06-21T14:09:57,42.805,6.029,4330,1995,191.238,58.494,13.296
2019-06-21T14:12:57,42.805,6.029,4330,1995,191.359,58.533,13.298
2019-06-21T14:15:57,42.805,6.029,4330,1995,191.248,58.502,13.300
2019-06-21T14:18:57,42.805,6.029,4330,1995,191.102,58.455,13.299
2019-06-21T14:21:57,42.805,6.029,4330,1995,191.097,58.458,13.302
2019-06-21T14:24:57,42.805,6.029,4330,1995,191.047,58.442,13.302
2019-06-21T14:27:57,42.805,6.029,4330,1995,190.900,58.394,13.298
2019-06-21T14:30:57,42.805,6.029,4330,1995,190.879,58.389,13.300
2019-06-21T14:33:57,42.805,6.029,4330,1995,190.765,58.360,13.305
2019-06-21T14:36:57,42.805,6.029,4330,1995,190.714,58.339,13.300
2019-06-21T14:39:57,42.805,6.029,4330,1995,190.638,58.314,13.299
2019-06-21T14:45:57,42.805,6.029,4330,1995,190.929,58.396,13.294
2019-06-21T14:48:57,42.805,6.029,4330,1995,190.846,58.370,13.293
2019-06-21T14:51:57,42.805,6.029,4330,1995,190.944,58.403,13.295
2019-06-21T14:54:57,42.805,6.029,4330,1995,191.091,58.449,13.297
2019-06-21T14:57:57,42.805,6.029,4330,1995,190.981,58.418,13.299
2019-06-21T15:00:57,42.805,6.029,4330,1995,190.910,58.392,13.295
2019-06-21T15:03:57,42.805,6.029,4330,1995,191.127,58.461,13.297
2019-06-21T15:06:57,42.805,6.029,4330,1995,191.220,58.488,13.296
2019-06-21T15:09:57,42.805,6.029,4330,1995,191.254,58.499,13.296
2019-06-21T15:12:57,42.805,6.029,4330,1995,191.250,58.498,13.297
2019-06-21T15:15:57,42.805,6.029,4330,1995,191.373,58.535,13.296
2019-06-21T15:18:57,42.805,6.029,4330,1995,191.349,58.529,13.297
2019-06-21T15:21:57,42.805,6.029,4330,1995,191.154,58.469,13.296
2019-06-21T15:24:57,42.805,6.029,4330,1995,191.379,58.539,13.298
2019-06-21T15:27:57,42.805,6.029,4330,1995,191.269,58.509,13.300
2019-06-21T15:30:57,42.805,6.029,4330,1995,191.475,58.568,13.297
2019-06-21T15:33:57,42.805,6.029,4330,1995,191.472,58.571,13.300
2019-06-21T15:36:57,42.805,6.029,4330,1995,191.250,58.501,13.299
2019-06-21T15:39:57,42.805,6.029,4330,1995,191.170,58.482,13.303
2019-06-21T15:42:57,42.805,6.029,4330,1995,190.949,58.412,13.301
2019-06-21T15:45:57,42.805,6.029,4330,1995,190.847,58.376,13.298
2019-06-21T15:48:57,42.805,6.029,4330,1995,191.052,58.437,13.296
2019-06-21T15:51:57,42.805,6.029,4330,1995,191.333,58.525,13.298
2019-06-21T15:54:57,42.805,6.029,4330,1995,191.259,58.501,13.297
2019-06-21T15:57:57,42.805,6.029,4330,1995,191.498,58.576,13.298
2019-06-21T16:00:57,42.805,6.029,4330,1995,191.682,58.632,13.298
2019-06-21T16:03:57,42.805,6.029,4330,1995,191.757,58.654,13.298
2019-06-21T16:06:57,42.805,6.029,4330,1995,191.807,58.669,13.297
2019-06-21T16:09:57,42.805,6.029,4330,1995,191.804,58.668,13.297
2019-06-21T16:12:57,42.805,6.029,4330,1995,191.695,58.639,13.300
2019-06-21T16:15:57,42.805,6.029,4330,1995,191.544,58.593,13.300
2019-06-21T16:18:57,42.805,6.029,4330,1995,191.307,58.518,13.299
2019-06-21T16:21:57,42.805,6.029,4330,1995,191.269,58.508,13.299
2019-06-21T16:24:57,42.805,6.029,4330,1995,191.125,58.466,13.301
2019-06-21T16:27:57,42.805,6.029,4330,1995,191.201,58.484,13.298
2019-06-21T16:30:57,42.805,6.029,4330,1995,191.416,58.552,13.299
2019-06-21T16:33:57,42.805,6.029,4330,1995,191.306,58.519,13.300
2019-06-21T16:36:57,42.805,6.029,4330,1995,191.173,58.475,13.297
2019-06-21T16:39:57,42.805,6.029,4330,1995,191.138,58.467,13.299
2019-06-21T16:42:57,42.805,6.029,4330,1995,191.086,58.449,13.298
2019-06-21T16:45:57,42.805,6.029,4330,1995,191.127,58.465,13.300
2019-06-21T16:48:57,42.805,6.029,4330,1995,191.063,58.444,13.299
2019-06-21T16:51:57,42.805,6.029,4330,1995,191.078,58.446,13.297
2019-06-21T16:54:57,42.805,6.029,4330,1995,191.182,58.481,13.299
2019-06-21T16:57:57,42.805,6.029,4330,1995,191.042,58.442,13.302
2019-06-21T17:00:57,42.805,6.029,4330,1995,191.113,58.456,13.297
2019-06-21T17:03:57,42.805,6.029,4330,1995,191.276,58.510,13.300
2019-06-21T17:06:57,42.805,6.029,4330,1995,191.314,58.517,13.296
2019-06-21T17:09:57,42.805,6.029,4330,1995,191.277,58.510,13.299
2019-06-21T17:12:57,42.805,6.029,4330,1995,191.109,58.457,13.298
2019-06-21T17:15:57,42.805,6.029,4330,1995,190.862,58.382,13.298
2019-06-21T17:21:57,42.805,6.029,4330,1995,191.084,58.441,13.292
2019-06-21T17:24:57,42.805,6.029,4330,1995,190.997,58.420,13.296
2019-06-21T17:27:57,42.805,6.029,4330,1995,190.995,58.424,13.299
2019-06-21T17:30:57,42.805,6.029,4330,1995,190.915,58.396,13.297
2019-06-21T17:33:57,42.805,6.029,4330,1995,190.967,58.416,13.300
2019-06-21T17:36:57,42.805,6.029,4330,1995,190.825,58.367,13.296
2019-06-21T17:39:57,42.805,6.029,4330,1995,191.047,58.435,13.296
2019-06-21T17:42:57,42.805,6.029,4330,1995,191.082,58.451,13.300
2019-06-21T17:45:57,42.805,6.029,4330,1995,191.081,58.449,13.298
2019-06-21T17:48:57,42.805,6.029,4330,1995,190.901,58.393,13.298
2019-06-21T17:51:57,42.805,6.029,4330,1995,190.710,58.338,13.301
2019-06-21T17:54:57,42.805,6.029,4330,1995,190.538,58.287,13.302
2019-06-21T17:57:57,42.805,6.029,4330,1995,190.401,58.248,13.304
2019-06-21T18:00:57,42.805,6.029,4330,1995,190.427,58.253,13.301
2019-06-21T18:03:57,42.805,6.029,4330,1995,190.578,58.299,13.302
2019-06-21T18:06:57,42.805,6.029,4330,1995,190.480,58.261,13.295
2019-06-21T18:09:57,42.805,6.029,4330,1995,190.691,58.325,13.295
2019-06-21T18:12:57,42.805,6.029,4330,1995,190.933,58.398,13.294
2019-06-21T18:15:57,42.805,6.029,4330,1995,190.918,58.396,13.296
2019-06-21T18:18:57,42.805,6.029,4330,1995,190.970,58.416,13.299
2019-06-21T18:21:57,42.805,6.029,4330,1995,190.838,58.373,13.297
2019-06-21T18:24:57,42.805,6.029,4330,1995,190.687,58.323,13.295
2019-06-21T18:27:57,42.805,6.029,4330,1995,190.859,58.376,13.294
2019-06-21T18:30:57,42.805,6.029,4330,1995,190.974,58.411,13.295
2019-06-21T18:33:57,42.805,6.029,4330,1995,191.168,58.471,13.295